Precipitable_Water
1.14 1.19 1.14 1.15 1.20 1.19 1.20 1.14 1.17 1.17 1.19 1.22 1.23 1.22 1.19 1.16 1.08 1.04 0.95 0.87 0.91 0.90
1.20 1.19 1.18 1.21 1.21 1.19 1.17 1.13 1.16 1.16 1.20 1.20 1.19 1.18 1.15 1.10 1.04 1.02 0.94 0.92 0.95 0.88
1.19 1.24 1.26 1.23 1.20 1.19 1.17 1.15 1.21 1.13 1.12 1.13 1.15 1.14 1.11 1.05 1.01 0.96 0.95 0.94 0.89 0.88
1.20 1.22 1.24 1.21 1.18 1.18 1.17 1.19 1.14 1.07 1.07 1.05 1.02 1.03 1.02 0.99 0.95 0.92 0.91 0.88 0.86 0.83
1.27 1.27 1.26 1.22 1.22 1.20 1.19 1.18 1.06 1.02 1.01 0.96 0.92 0.91 0.87 0.83 0.80 0.80 0.76 0.74 0.73 0.70
1.19 1.15 1.14 1.13 1.13 1.14 1.10 1.05 1.01 0.99 0.95 0.90 0.86 0.85 0.80 0.76 0.71 0.73 0.73 0.70 0.67 0.65
1.13 1.09 1.06 1.08 1.09 1.06 1.04 1.04 1.00 0.97 0.91 0.88 0.83 0.80 0.73 0.72 0.72 0.70 0.70 0.68 0.66 0.59
1.00 1.00 1.05 1.07 1.05 1.05 1.03 0.99 0.95 0.89 0.84 0.79 0.77 0.73 0.72 0.70 0.68 0.67 0.63 0.60 0.55 0.51
0.98 1.01 1.01 1.02 0.99 0.98 0.96 0.91 0.84 0.79 0.75 0.71 0.71 0.70 0.67 0.64 0.59 0.55 0.49 0.44 0.42 0.40
0.98 0.97 0.95 0.95 0.91 0.87 0.82 0.78 0.70 0.67 0.67 0.65 0.63 0.63 0.62 0.57 0.48 0.39 0.35 0.33 0.31 0.30
0.89 0.87 0.82 0.77 0.74 0.69 0.65 0.63 0.63 0.64 0.64 0.63 0.58 0.56 0.51 0.44 0.39 0.35 0.34 0.33 0.34 0.33
0.73 0.70 0.68 0.63 0.60 0.61 0.62 0.63 0.63 0.61 0.55 0.52 0.49 0.47 0.42 0.38 0.36 0.33 0.31 0.30 0.28 0.25
0.68 0.65 0.59 0.59 0.61 0.62 0.62 0.58 0.53 0.50 0.49 0.46 0.43 0.42 0.38 0.35 0.32 0.26 0.25 0.24 0.21 0.18
0.61 0.60 0.60 0.61 0.59 0.54 0.50 0.50 0.49 0.45 0.42 0.40 0.39 0.37 0.34 0.30 0.27 0.25 0.22 0.19 0.18 0.18
Wind_Speed
20 19 19 20 19 21 21 21 23 24 26 28 29 31 31 33 31 30 30 31 33 35
21 22 22 22 22 22 21 22 23 25 27 28 28 30 31 27 29 31 31 32 34 33
24 23 24 23 24 23 23 23 25 25 26 26 27 28 27 28 28 30 32 32 34 35
25 25 25 25 25 25 25 26 25 25 25 26 27 25 26 27 27 30 31 34 37 38
27 26 26 26 26 26 26 26 25 25 25 26 25 25 25 29 30 32 34 36 36 37
24 23 24 25 25 25 25 25 25 25 25 25 25 25 27 28 29 32 34 35 36 38
22 22 23 23 23 23 24 24 25 25 25 25 25 26 27 29 31 32 34 36 37 39
20 21 21 21 21 23 23 24 24 25 25 25 26 28 29 30 32 33 35 37 38 39
20 21 21 22 22 22 22 23 24 24 24 26 28 29 30 32 33 34 36 38 39 41
20 21 22 22 22 22 23 23 23 24 26 28 29 30 30 32 34 36 37 39 40 42
21 20 20 21 21 22 22 23 25 26 27 28 28 29 31 34 36 36 38 39 41 43
19 19 20 21 22 22 24 25 26 26 27 28 30 31 33 35 36 38 40 41 43 45
20 20 20 22 23 23 25 25 26 27 29 31 32 33 34 36 38 39 41 43 44 46
20 21 22 22 23 24 25 26 28 30 31 32 33 34 36 37 39 41 43 44 46 47
Wind_Direction
247 251 254 257 262 262 269 269 273 274 273 275 276 275 271 268 265 264 275 277 283 288
251 253 255 259 262 264 272 274 275 278 279 279 281 281 269 274 262 264 278 281 284 288
253 255 257 260 263 266 273 277 279 281 281 281 282 280 276 272 276 273 278 284 283 287
254 257 259 262 266 270 273 278 280 282 281 283 284 281 277 277 279 279 278 287 287 288
256 258 261 265 268 271 273 278 281 281 282 283 283 282 281 281 283 282 285 289 290 290
259 259 263 266 268 270 272 277 280 282 282 282 284 282 286 286 286 287 289 291 291 292
262 265 266 266 268 270 274 277 280 281 283 283 284 286 288 289 290 291 292 293 294 295
262 267 267 267 270 274 275 278 280 281 282 284 285 288 290 291 293 294 295 296 297 297
266 268 268 270 273 273 276 278 280 281 283 286 288 289 291 293 296 297 298 299 299 299
266 268 270 270 271 274 276 279 280 283 286 288 290 291 293 295 297 299 299 300 300 301
267 267 268 270 273 275 276 279 282 285 287 290 292 294 296 297 298 300 301 301 302 303
266 268 271 273 275 276 278 281 284 287 289 291 293 296 298 299 300 301 302 303 303 304
269 270 272 274 276 279 281 283 287 289 291 293 294 297 300 301 302 303 303 304 305 305
270 272 275 276 279 282 284 286 288 290 292 294 295 298 301 302 303 304 305 306 306 307